GW4332 Weather Reports


Display with metric or nautical units.
time (UTC)temp
F
wind
direction
speed
MPH
gust
MPH
rain 1hr
in
rain 24hr
in
rain mn
in
humidity
%
barometer
mb
20260509015030 51 108 2.0 6.0 0.00 0.00 0.00 75 1019.6
20260509014029 51 121 1.0 6.0 0.00 0.00 0.00 75 1019.6
20260509013030 52 95 1.0 5.0 0.00 0.00 0.00 74 1019.6
20260509012029 52 160 0.0 4.0 0.00 0.00 0.00 74 1019.6
20260509011029 52 136 1.0 7.0 0.00 0.00 0.00 74 1019.6
20260509010030 52 112 1.0 7.0 0.00 0.00 0.00 73 1019.6
20260509005030 53 130 2.0 8.0 0.00 0.00 0.00 73 1019.6
20260509004029 53 98 1.0 8.0 0.00 0.00 0.00 73 1019.5
20260509003030 53 105 2.0 7.0 0.00 0.00 0.00 72 1019.5
20260509002029 53 149 1.0 9.0 0.00 0.00 0.00 72 1019.5
20260509001029 53 182 1.0 8.0 0.00 0.00 0.00 71 1019.4
20260509000030 54 145 2.0 9.0 0.00 0.00 0.00 71 1019.3
20260508235030 54 122 1.0 9.0 0.00 0.00 0.00 71 1019.3
20260508234029 54 125 1.0 9.0 0.00 0.00 0.00 70 1019.2
20260508233030 54 237 1.0 8.0 0.00 0.00 0.00 70 1019.3
20260508232030 55 183 1.0 6.0 0.00 0.00 0.00 69 1019.4
20260508231029 55 123 1.0 6.0 0.00 0.00 0.00 69 1019.4
20260508230030 55 102 2.0 6.0 0.00 0.00 0.00 68 1019.3
20260508225030 56 87 1.0 8.0 0.00 0.00 0.00 68 1019.4
20260508224029 56 121 2.0 7.0 0.00 0.00 0.00 67 1019.5
20260508223030 56 114 3.0 9.0 0.00 0.00 0.00 66 1019.5
20260508222030 57 129 1.0 7.0 0.00 0.00 0.00 66 1019.5
20260508221029 57 106 1.0 9.0 0.00 0.00 0.00 65 1019.5
20260508220030 57 149 0.0 7.0 0.00 0.00 0.00 65 1019.5
20260508215030 58 55 1.0 8.0 0.00 0.00 0.00 64 1019.4
20260508214029 58 95 1.0 7.0 0.00 0.00 0.00 64 1019.4
20260508213030 59 106 2.0 7.0 0.00 0.00 0.00 62 1019.3
20260508212029 59 122 0.0 8.0 0.00 0.00 0.00 62 1019.2
20260508211030 59 93 1.0 9.0 0.00 0.00 0.00 61 1019.3
20260508210029 59 151 0.0 4.0 0.00 0.00 0.00 61 1019.2
20260508205030 60 116 2.0 8.0 0.00 0.00 0.00 61 1019.1
20260508204030 59 104 3.0 7.0 0.00 0.00 0.00 62 1019.1
20260508203029 59 86 3.0 4.0 0.00 0.00 0.00 61 1019.1
20260508202030 60 85 2.0 3.0 0.00 0.00 0.00 60 1019.0
20260508201029 60 69 3.0 4.0 0.00 0.00 0.00 59 1019.0
20260508200030 61 57 4.0 5.0 0.00 0.00 0.00 59 1018.9
20260508195030 61 58 3.0 4.0 0.00 0.00 0.00 57 1018.9
20260508194030 62 67 2.0 4.0 0.00 0.00 0.00 56 1018.9
20260508193030 62 59 3.0 4.0 0.00 0.00 0.00 56 1018.7
20260508192029 63 57 2.0 6.0 0.00 0.00 0.00 55 1018.6
20260508191030 63 94 3.0 8.0 0.00 0.00 0.00 50 1018.5
20260508190029 64 107 2.0 7.0 0.00 0.00 0.00 50 1018.4
20260508185030 64 105 2.0 8.0 0.00 0.00 0.00 49 1018.2
20260508184030 65 106 2.0 7.0 0.00 0.00 0.00 48 1018.1
20260508183029 65 105 2.0 8.0 0.00 0.00 0.00 48 1018.1
20260508182030 65 89 1.0 4.0 0.00 0.00 0.00 47 1018.0
20260508181029 65 71 1.0 4.0 0.00 0.00 0.00 47 1018.0
20260508180030 65 85 2.0 4.0 0.00 0.00 0.00 46 1017.9
20260508175030 65 79 1.0 3.0 0.00 0.00 0.00 46 1017.8
20260508174030 65 81 1.0 3.0 0.00 0.00 0.00 48 1017.8
20260508173030 65 77 1.0 2.0 0.00 0.00 0.00 47 1017.9
20260508172029 65 95 0.0 2.0 0.00 0.00 0.00 48 1017.8
20260508171030 65 133 1.0 2.0 0.00 0.00 0.00 47 1017.7
20260508170030 65 91 2.0 7.0 0.00 0.00 0.00 48 1017.7
20260508165029 65 100 2.0 7.0 0.00 0.00 0.00 47 1017.7
20260508164030 65 73 0.0 4.0 0.00 0.00 0.00 47 1017.6
20260508163029 65 101 1.0 7.0 0.00 0.00 0.00 46 1017.5
20260508162030 65 121 2.0 11.0 0.00 0.00 0.00 46 1017.5
20260508161029 65 98 0.0 7.0 0.00 0.00 0.00 46 1017.6
20260508160030 65 118 1.0 9.0 0.00 0.00 0.00 46 1017.6
20260508155030 66 120 1.0 9.0 0.00 0.00 0.00 46 1017.6
20260508154030 66 91 1.0 7.0 0.00 0.00 0.00 46 1017.7
20260508153029 66 99 2.0 9.0 0.00 0.00 0.00 47 1017.8
20260508152030 66 98 1.0 4.0 0.00 0.00 0.00 46 1017.8
20260508151029 66 61 2.0 7.0 0.00 0.00 0.00 45 1017.9
20260508150030 66 83 2.0 11.0 0.00 0.00 0.00 46 1017.8
20260508145030 67 82 4.0 9.0 0.00 0.00 0.00 45 1017.8
20260508144030 67 57 2.0 8.0 0.00 0.00 0.00 43 1017.8
20260508143030 68 105 3.0 12.0 0.00 0.00 0.00 42 1017.9
20260508142029 68 58 3.0 11.0 0.00 0.00 0.00 44 1017.9
20260508141030 67 88 4.0 12.0 0.00 0.00 0.00 45 1018.0
20260508140030 67 86 4.0 12.0 0.00 0.00 0.00 45 1018.0
20260508135030 67 87 3.0 12.0 0.00 0.00 0.00 44 1018.0
20260508134029 67 106 3.0 11.0 0.00 0.00 0.00 46 1018.1
20260508133030 67 119 2.0 12.0 0.00 0.00 0.00 46 1018.1
20260508132029 66 153 2.0 13.0 0.00 0.00 0.00 47 1018.1
20260508131030 66 105 5.0 18.0 0.00 0.00 0.00 49 1018.2
20260508130029 65 60 2.0 10.0 0.00 0.00 0.00 50 1018.2
20260508125029 64 86 0.0 11.0 0.00 0.00 0.00 52 1018.3
20260508124030 62 124 2.0 8.0 0.00 0.00 0.00 53 1018.3
20260508123030 61 81 6.0 14.0 0.00 0.00 0.00 52 1018.3
20260508122030 62 111 3.0 14.0 0.00 0.00 0.00 53 1018.3
20260508121030 62 91 7.0 14.0 0.00 0.00 0.00 53 1018.4
20260508120030 62 110 3.0 10.0 0.00 0.00 0.00 53 1018.3
20260508115030 63 149 3.0 17.0 0.00 0.00 0.00 53 1018.4
20260508114029 63 104 4.0 15.0 0.00 0.00 0.00 56 1018.4
20260508113030 62 103 4.0 15.0 0.00 0.00 0.00 56 1018.4
20260508112029 61 91 6.0 20.0 0.00 0.00 0.00 59 1018.6
20260508111030 60 107 5.0 18.0 0.00 0.00 0.00 59 1018.5
20260508110029 60 60 3.0 16.0 0.00 0.00 0.00 58 1018.6
20260508105030 60 121 6.0 24.0 0.00 0.00 0.00 60 1018.6
20260508104029 59 100 5.0 15.0 0.00 0.00 0.00 61 1018.7
20260508103030 59 111 5.0 21.0 0.00 0.00 0.00 62 1018.7
20260508102029 58 226 1.0 14.0 0.00 0.00 0.00 64 1018.7
20260508101029 58 320 1.0 20.0 0.00 0.00 0.00 64 1018.7
20260508100030 58 111 2.0 21.0 0.00 0.00 0.00 65 1018.7
20260508095029 57 137 2.0 18.0 0.00 0.00 0.00 66 1018.8
20260508094030 57 270 1.0 16.0 0.00 0.00 0.00 66 1018.8
20260508093029 56 185 2.0 19.0 0.00 0.00 0.00 67 1018.8
20260508092030 56 102 2.0 15.0 0.00 0.00 0.00 67 1018.8
20260508091030 56 93 4.0 19.0 0.00 0.00 0.00 69 1018.8
20260508090029 55 121 4.0 19.0 0.00 0.00 0.00 70 1018.9
20260508085030 55 268 1.0 12.0 0.00 0.00 0.00 71 1018.9
20260508084030 55 289 1.0 11.0 0.00 0.00 0.00 72 1019.0
20260508083029 54 130 2.0 16.0 0.00 0.00 0.00 73 1019.0
20260508082030 54 102 3.0 14.0 0.00 0.00 0.00 74 1019.0
20260508081029 53 91 5.0 17.0 0.00 0.00 0.00 75 1018.9
20260508080030 53 124 4.0 14.0 0.00 0.00 0.00 75 1018.9
20260508075030 53 127 5.0 16.0 0.00 0.00 0.00 75 1019.0
20260508074029 53 274 1.0 15.0 0.00 0.00 0.00 75 1019.0
20260508073030 52 90 6.0 18.0 0.00 0.00 0.00 76 1018.9
20260508072029 52 103 2.0 15.0 0.00 0.00 0.00 77 1019.1
20260508071030 51 139 2.0 15.0 0.00 0.00 0.00 77 1019.0
20260508070030 51 188 1.0 14.0 0.00 0.00 0.00 78 1019.0
20260508065030 51 77 2.0 14.0 0.00 0.00 0.00 79 1018.9
20260508064030 51 116 4.0 13.0 0.00 0.00 0.00 80 1018.9
20260508063030 50 150 1.0 10.0 0.00 0.00 0.00 81 1018.8
20260508062030 50 52 1.0 9.0 0.00 0.00 0.00 82 1018.7
20260508061030 50 97 2.0 11.0 0.00 0.00 0.00 82 1018.6
20260508060029 50 87 3.0 12.0 0.00 0.00 0.00 83 1018.5
20260508055030 50 84 2.0 12.0 0.00 0.00 0.00 83 1018.4
20260508054029 49 97 0.0 12.0 0.00 0.00 0.00 83 1018.3
20260508053030 49 278 0.0 7.0 0.00 0.00 0.00 84 1018.2
20260508052029 49 115 1.0 12.0 0.00 0.00 0.00 85 1018.2
20260508051029 49 138 1.0 12.0 0.00 0.00 0.00 84 1018.1
20260508050030 49 108 1.0 11.0 0.00 0.00 0.00 85 1018.1
20260508045029 48 81 1.0 11.0 0.00 0.00 0.00 85 1018.1
20260508044030 48 199 2.0 9.0 0.00 0.00 0.00 85 1018.1
20260508043029 48 108 0.0 9.0 0.00 0.00 0.00 84 1018.0
20260508042030 48 74 1.0 9.0 0.00 0.00 0.00 84 1018.0
20260508041030 48 183 0.0 9.0 0.00 0.00 0.00 84 1017.9
20260508040030 48 91 1.0 7.0 0.00 0.00 0.00 84 1017.9
20260508035030 48 91 1.0 8.0 0.00 0.00 0.00 83 1018.0
20260508034029 49 99 2.0 9.0 0.00 0.00 0.00 83 1018.0
20260508033030 49 71 1.0 7.0 0.00 0.00 0.00 83 1017.9
20260508032030 49 102 2.0 7.0 0.00 0.00 0.00 82 1017.9
20260508031030 49 107 1.0 8.0 0.00 0.00 0.00 82 1017.8
20260508030030 49 130 0.0 10.0 0.00 0.00 0.00 82 1017.8
20260508025030 49 356 0.0 8.0 0.00 0.00 0.00 82 1017.8
20260508024029 49 120 1.0 9.0 0.00 0.00 0.00 81 1017.8
20260508023030 49 86 2.0 11.0 0.00 0.00 0.00 81 1017.8
20260508022029 49 136 1.0 10.0 0.00 0.00 0.00 81 1017.8
20260508021029 49 115 2.0 12.0 0.00 0.00 0.00 81 1017.8
20260508020030 50 106 2.0 11.0 0.00 0.00 0.00 80 1017.6